TimeCDT,TemperatureF,Dew PointF,Humidity,Sea Level PressureIn,VisibilityMPH,Wind Direction,Wind SpeedMPH,Gust SpeedMPH,PrecipitationIn,Events,Conditions,WindDirDegrees,DateUTC
12:53 AM,79.0,59.0,50,30.06,10.0,SE,8.1,-,N/A,,Clear,130,2013-09-05 05:53:00
1:53 AM,78.1,59.0,52,30.06,10.0,SE,9.2,-,N/A,,Clear,130,2013-09-05 06:53:00
2:53 AM,78.1,59.0,52,30.05,10.0,SE,11.5,-,N/A,,Clear,140,2013-09-05 07:53:00
3:53 AM,77.0,59.0,54,30.05,10.0,SSE,9.2,-,N/A,,Clear,150,2013-09-05 08:53:00
4:53 AM,75.9,59.0,56,30.05,10.0,SSE,9.2,-,N/A,,Clear,160,2013-09-05 09:53:00
5:53 AM,75.0,57.9,55,30.06,10.0,SSE,11.5,-,N/A,,Clear,160,2013-09-05 10:53:00
6:53 AM,75.0,57.0,53,30.07,10.0,South,9.2,-,N/A,,Clear,170,2013-09-05 11:53:00
7:53 AM,73.9,57.9,57,30.09,8.0,SE,6.9,-,N/A,,Clear,140,2013-09-05 12:53:00
8:53 AM,77.0,57.9,52,30.10,8.0,SE,6.9,-,N/A,,Clear,140,2013-09-05 13:53:00
9:53 AM,80.1,57.9,47,30.10,8.0,South,10.4,-,N/A,,Clear,180,2013-09-05 14:53:00
10:53 AM,82.9,61.0,47,30.13,8.0,SSE,8.1,-,N/A,,Clear,160,2013-09-05 15:53:00
11:53 AM,86.0,63.0,46,30.11,7.0,South,6.9,-,N/A,,Clear,190,2013-09-05 16:53:00
12:53 PM,89.1,66.0,46,30.10,7.0,South,6.9,-,N/A,,Clear,180,2013-09-05 17:53:00
1:53 PM,90.0,66.0,45,30.09,7.0,Variable,4.6,-,N/A,,Clear,0,2013-09-05 18:53:00
2:53 PM,91.0,60.1,35,30.06,7.0,Calm,Calm,-,N/A,,Scattered Clouds,0,2013-09-05 19:53:00
3:53 PM,91.9,60.1,34,30.05,7.0,SE,6.9,-,N/A,,Partly Cloudy,140,2013-09-05 20:53:00
4:53 PM,93.0,61.0,34,30.03,7.0,East,5.8,-,N/A,,Partly Cloudy,80,2013-09-05 21:53:00
5:53 PM,91.9,59.0,33,30.03,7.0,SE,6.9,-,N/A,,Clear,140,2013-09-05 22:53:00
6:53 PM,91.0,59.0,34,30.02,7.0,ESE,8.1,-,N/A,,Clear,120,2013-09-05 23:53:00
7:53 PM,87.1,61.0,41,30.02,7.0,SE,6.9,-,N/A,,Clear,130,2013-09-06 00:53:00
8:53 PM,84.9,61.0,44,30.03,8.0,ESE,5.8,-,N/A,,Clear,120,2013-09-06 01:53:00
9:53 PM,82.9,62.1,49,30.05,8.0,ESE,4.6,-,N/A,,Clear,110,2013-09-06 02:53:00
10:53 PM,82.0,61.0,49,30.06,8.0,SE,9.2,-,N/A,,Clear,140,2013-09-06 03:53:00
11:53 PM,81.0,61.0,50,30.06,9.0,SE,11.5,-,N/A,,Clear,130,2013-09-06 04:53:00